Terminal Aerodrome Forecast
Issued by NWS Mt. Holly, NJ

Home | Current Version | Previous Version | Text Only | Print | Product List | Glossary On
Versions: 1 2 3 4 5 6 7 8 9 10 11 12 13 14 15 16 17 18 19 20 21 22 23 24 25 26 27 28 29 30 31 32 33 34 35 36 37 38 39 40 41 42 43 44 45 46 47 48 49 50
000
FTUS41 KPHI 272300
TAFABE
TAF
KABE 272320Z 2800/2824 25006KT P6SM SCT050
     FM280300 30004KT P6SM BKN050
     FM280600 33006KT P6SM SCT050
     FM281400 31009G17KT P6SM FEW040=

USA.gov is the U.S. government's official web portal to all federal, state and local government web resources and services.